CAPE
0 0 0 0 0 0 0 0 0 0 0 0 0 0 0 0 0 0 0 0 0 0 0 0 0 0 0 0 0 0 0 0 10 2 267 13 276 800 506 609 896 1252 1187 1178 1085
0 0 0 0 0 0 0 0 0 0 0 0 0 0 0 0 0 0 0 0 0 0 0 0 0 0 0 0 0 0 0 0 0 0 7 18 267 463 589 944 1130 1209 1382 1438 1117
0 0 0 0 0 0 0 0 0 0 0 0 0 0 0 0 0 0 0 0 0 0 0 0 0 0 0 0 0 0 0 0 0 0 0 0 456 436 418 840 931 1055 1186 1286 996
0 0 0 0 0 0 0 0 0 0 0 0 0 0 0 0 0 0 0 0 0 0 0 0 0 0 0 0 0 0 0 0 0 0 0 0 621 462 539 1225 1046 910 985 977 726
0 0 0 0 0 0 0 0 0 0 0 0 0 0 0 0 0 0 0 0 0 0 0 0 0 0 0 0 0 0 0 0 0 0 0 150 634 1058 1481 1075 935 842 921 814 704
0 0 0 0 0 0 0 0 0 0 0 0 0 0 0 0 0 0 0 0 0 0 0 0 0 0 0 0 0 0 0 0 0 0 0 69 962 998 1103 822 711 702 677 726 705
0 0 0 0 0 0 0 0 0 0 0 0 0 0 0 0 0 0 0 0 0 0 0 0 0 0 0 0 0 0 0 0 0 0 0 393 616 895 893 971 884 732 654 575 504
0 0 0 0 0 0 0 0 0 0 0 0 0 0 0 0 0 0 0 0 0 0 0 0 0 0 0 0 0 0 0 0 0 0 1 194 58 905 861 930 853 741 616 461 261
0 0 0 0 0 0 0 0 0 0 0 0 0 0 0 0 0 0 0 0 0 0 0 0 0 0 0 0 0 0 0 1 22 2 29 77 740 724 824 989 857 688 488 274 72
0 0 0 0 0 0 0 0 0 0 0 0 0 0 0 0 0 0 0 0 0 0 0 0 0 0 0 0 0 0 0 4 146 46 153 62 942 642 772 993 929 826 545 250 53
0 0 0 0 0 0 0 0 0 0 0 0 0 0 0 0 0 0 0 0 0 0 0 0 0 0 0 0 0 0 0 0 2 40 48 52 1057 804 721 827 851 928 539 246 9
0 0 0 0 0 0 0 0 0 0 0 0 0 0 0 0 0 0 0 0 0 0 0 0 0 0 0 0 0 0 0 1 72 261 104 57 990 872 668 786 915 848 549 245 3
0 0 0 0 0 0 0 0 0 0 0 0 0 0 0 0 0 0 0 0 0 0 0 0 0 0 0 0 0 0 0 47 13 31 36 175 377 886 728 769 799 827 616 286 21
0 0 0 0 0 0 0 0 0 0 0 0 0 0 0 0 0 0 0 0 0 0 0 0 0 0 0 0 0 0 0 60 176 3 5 83 70 609 502 726 762 834 630 287 60
0 0 0 0 0 0 0 0 0 0 0 0 0 0 0 0 0 0 0 0 0 0 0 0 0 0 0 0 0 0 0 0 28 0 132 107 26 59 562 687 613 695 573 264 90
0 0 0 0 0 0 0 0 0 0 0 0 0 0 0 0 0 0 0 0 0 0 0 0 0 0 0 0 0 0 0 13 53 57 74 38 73 421 427 550 558 569 603 313 112
0 0 0 0 0 0 0 0 0 0 0 0 0 0 0 0 0 0 0 0 0 0 0 0 0 0 0 0 0 0 9 20 40 11 3 47 14 8 180 34 149 696 749 437 152
0 0 0 0 0 0 0 0 0 0 0 0 0 0 0 0 0 0 0 0 0 0 0 0 0 0 0 0 0 0 4 5 6 11 34 3 3 79 46 4 64 283 949 608 188
0 0 0 0 0 0 0 0 0 0 0 0 0 0 0 0 0 0 0 0 0 0 0 0 6 0 0 0 1 0 0 31 1 16 62 67 28 48 19 13 115 184 651 691 231
0 0 0 0 0 0 0 0 0 0 0 0 0 0 0 0 0 0 0 0 0 0 0 13 19 0 0 0 0 2 7 1 0 0 33 46 29 41 5 19 55 117 435 507 252
0 0 0 0 0 0 0 0 0 0 0 0 0 0 1 11 0 0 0 0 0 0 0 0 7 2 0 0 0 0 0 8 20 46 26 47 55 21 12 7 53 44 150 302 160
0 0 0 0 0 0 0 0 0 0 0 0 0 3 5 0 1 17 1 0 0 0 0 0 6 37 1 0 0 22 13 24 37 22 77 47 41 0 0 0 0 3 126 172 144
0 0 0 0 0 90 74 1 0 0 0 0 0 0 0 0 2 0 3 1 1 0 0 0 0 19 36 18 1 1 7 82 45 93 66 21 50 0 0 0 0 0 28 53 110
0 0 7 0 1 98 184 128 44 12 0 0 0 6 10 18 6 62 34 25 3 0 0 0 0 0 71 47 31 1 0 40 61 61 63 44 19 11 12 3 2 16 15 44 85
0 0 0 0 29 3 52 175 80 116 105 16 8 0 2 21 12 35 131 68 36 1 0 22 0 19 20 35 4 17 0 41 43 71 90 91 51 34 28 12 2 54 36 46 42
0 0 0 0 0 0 0 50 226 177 154 112 47 145 137 72 59 130 181 288 70 39 13 70 27 30 63 61 27 61 0 37 10 67 86 73 56 54 11 5 0 77 68 19 22
0 0 0 0 0 0 2 59 69 32 118 241 163 3 106 284 189 132 101 204 302 132 158 120 106 57 56 80 58 27 36 71 102 108 117 90 95 6 0 0 0 34 60 27 20
CIN
-0 -0 -0 -0 -0 -0 -0 -0 -0 -0 -0 -0 -0 -0 -0 -0 -0 -0 -0 -0 -0 -0 -0 -0 -0 -0 -0 -0 -0 -0 -0 -0 -5 -5 -5 -44 -3 -7 -35 -42 -94 -69 -43 -55 -34
-0 -0 -0 -0 -0 -0 -0 -0 -0 -0 -0 -0 -0 -0 -0 -0 -0 -0 -0 -0 -0 -0 -0 -0 -0 -0 -0 -0 -0 -0 -0 -0 -0 -0 -4 -6 -3 -17 -17 -44 -87 -108 -74 -44 -17
-0 -0 -0 -0 -0 -0 -0 -0 -0 -0 -0 -0 -0 -0 -0 -0 -0 -0 -0 -0 -0 -0 -0 -0 -0 -0 -0 -0 -0 -0 -0 -0 -0 -0 -0 -0 -3 -4 -3 -4 -53 -61 -79 -36 -52
-0 -0 -0 -0 -0 -0 -0 -0 -0 -0 -0 -0 -0 -0 -0 -0 -0 -0 -0 -0 -0 -0 -0 -0 -0 -0 -0 -0 -0 -0 -0 -0 -0 -0 -0 -0 -4 -7 -5 -17 -100 -116 -83 -76 -109
-0 -0 -0 -0 -0 -0 -0 -0 -0 -0 -0 -0 -0 -0 -0 -0 -0 -0 -0 -0 -0 -0 -0 -0 -0 -0 -0 -0 -0 -0 -0 -0 -0 -0 -0 -3 -2 -3 -64 -175 -178 -162 -90 -86 -89
-0 -0 -0 -0 -0 -0 -0 -0 -0 -0 -0 -0 -0 -0 -0 -0 -0 -0 -0 -0 -0 -0 -0 -0 -0 -0 -0 -0 -0 -0 -0 -0 -0 -0 -0 -2 -25 -56 -102 -183 -192 -173 -149 -122 -105
-0 -0 -0 -0 -0 -0 -0 -0 -0 -0 -0 -0 -0 -0 -0 -0 -0 -0 -0 -0 -0 -0 -0 -0 -0 -0 -0 -0 -0 -0 -0 -0 -0 -0 -0 -6 -36 -7 -118 -101 -114 -148 -153 -163 -154
-0 -0 -0 -0 -0 -0 -0 -0 -0 -0 -0 -0 -0 -0 -0 -0 -0 -0 -0 -0 -0 -0 -0 -0 -0 -0 -0 -0 -0 -0 -0 -0 -0 -0 -3 -23 -4 -126 -151 -89 -95 -111 -142 -158 -200
-0 -0 -0 -0 -0 -0 -0 -0 -0 -0 -0 -0 -0 -0 -0 -0 -0 -0 -0 -0 -0 -0 -0 -0 -0 -0 -0 -0 -0 -0 -0 -1 -5 -47 -39 -23 -35 -170 -150 -65 -72 -97 -144 -189 -322
-0 -0 -0 -0 -0 -0 -0 -0 -0 -0 -0 -0 -0 -0 -0 -0 -0 -0 -0 -0 -0 -0 -0 -0 -0 -0 -0 -0 -0 -0 -0 -1 -5 -11 -5 -6 -22 -188 -157 -61 -52 -68 -102 -169 -302
-0 -0 -0 -0 -0 -0 -0 -0 -0 -0 -0 -0 -0 -0 -0 -0 -0 -0 -0 -0 -0 -0 -0 -0 -0 -0 -0 -0 -0 -0 -0 -0 -3 -12 -6 -4 -48 -163 -178 -107 -56 -49 -92 -153 -356
-0 -0 -0 -0 -0 -0 -0 -0 -0 -0 -0 -0 -0 -0 -0 -0 -0 -0 -0 -0 -0 -0 -0 -0 -0 -0 -0 -0 -0 -0 -0 -1 -6 -13 -9 -4 -12 -102 -192 -137 -78 -55 -79 -159 -46
-0 -0 -0 -0 -0 -0 -0 -0 -0 -0 -0 -0 -0 -0 -0 -0 -0 -0 -0 -0 -0 -0 -0 -0 -0 -0 -0 -0 -0 -0 -0 -6 -3 -37 -24 -3 -2 -49 -107 -122 -108 -69 -69 -151 -354
-0 -0 -0 -0 -0 -0 -0 -0 -0 -0 -0 -0 -0 -0 -0 -0 -0 -0 -0 -0 -0 -0 -0 -0 -0 -0 -0 -0 -0 -0 -0 -7 -5 -8 -16 -2 -7 -24 -45 -93 -118 -79 -76 -140 -260
-0 -0 -0 -0 -0 -0 -0 -0 -0 -0 -0 -0 -0 -0 -0 -0 -0 -0 -0 -0 -0 -0 -0 -0 -0 -0 -0 -0 -0 -0 -0 -2 -5 -0 -7 -22 -3 -5 -13 -64 -123 -83 -94 -128 -204
-0 -0 -0 -0 -0 -0 -0 -0 -0 -0 -0 -0 -0 -0 -0 -0 -0 -0 -0 -0 -0 -0 -0 -0 -0 -0 -0 -0 -0 -1 -0 -3 -3 -6 -5 -8 -5 -5 -7 -12 -29 -64 -53 -104 -159
-0 -0 -0 -0 -0 -0 -0 -0 -0 -0 -0 -0 -0 -0 -0 -0 -0 -0 -0 -0 -0 -0 -0 -0 -0 -0 -0 -0 -0 -0 -3 -5 -8 -10 -10 -5 -8 -5 -45 -18 -18 -13 -20 -57 -103
-0 -0 -0 -0 -0 -0 -0 -0 -0 -0 -0 -0 -0 -0 -0 -0 -0 -0 -0 -0 -0 -0 -0 -0 -0 -0 -0 -0 -0 -0 -3 -7 -41 -51 -28 -47 -23 -9 -68 -66 -68 -19 -3 -19 -74
-0 -0 -0 -0 -0 -0 -0 -0 -0 -0 -0 -0 -0 -0 -0 -0 -0 -0 -0 -0 -0 -0 -0 -1 -6 -0 -0 -0 -2 -1 -1 -7 -4 -9 -19 -6 -12 -23 -82 -77 -66 -41 -2 -12 -63
-0 -0 -0 -0 -0 -0 -0 -0 -0 -0 -0 -0 -0 -0 -0 -0 -0 -0 -0 -0 -0 -0 -0 -5 -28 -0 -0 -0 -0 -5 -9 -3 -0 -0 -9 -10 -30 -10 -22 -6 -37 -32 -3 -12 -58
-0 -0 -0 -0 -0 -0 -0 -0 -0 -0 -0 -0 -0 -0 -1 -7 -0 -0 -0 -0 -0 -0 -0 -0 -8 -34 -0 -0 -0 -0 -0 -4 -5 -22 -27 -7 -14 -26 -7 -14 -5 -2 -4 -2 -52
-0 -0 -0 -0 -0 -0 -0 -0 -0 -0 -0 -0 -0 -3 -4 -0 -3 -7 -3 -0 -0 -0 -0 -0 -4 -12 -7 -0 -0 -7 -7 -6 -7 -4 -5 -6 -13 -0 -0 -0 -0 -0 -7 -3 -13
-0 -0 -0 -0 -0 -5 -7 -1 -0 -0 -0 -0 -0 -0 -0 -2 -1 -0 -4 -1 -5 -0 -0 -0 -0 -4 -22 -10 -5 -10 -4 -4 -16 -7 -5 -14 -9 -0 -0 -0 -0 -0 -8 -5 -9
-0 -0 -45 -4 -1 -20 -7 -5 -8 -2 -0 -0 -1 -5 -6 -3 -6 -3 -4 -13 -19 -0 -0 -0 -0 -0 -8 -6 -5 -2 -0 -3 -4 -3 -6 -7 -58 -17 -12 -6 -1 -26 -2 -6 -28
-0 -0 -0 -0 -2 -13 -16 -3 -4 -4 -2 -3 -3 -0 -5 -3 -5 -6 -5 -9 -38 -5 -0 -9 -0 -4 -8 -25 -47 -28 -1 -6 -5 -4 -6 -5 -7 -4 -6 -8 -1 -5 -4 -3 -51
-0 -0 -0 -0 -0 -0 -0 -5 -3 -3 -2 -3 -44 -4 -4 -3 -5 -5 -25 -15 -7 -21 -33 -18 -6 -5 -8 -5 -10 -6 -0 -13 -21 -6 -8 -6 -4 -8 -28 -21 -0 -0 -1 -16 -53
-0 -0 -0 -0 -0 -0 -2 -7 -7 -9 -19 -4 -2 -22 -3 -13 -53 -49 -97 -81 -21 -5 -44 -20 -10 -5 -5 -6 -4 -4 -5 -7 -5 -4 -4 -4 -4 -20 -0 -0 -0 -8 -19 -26 -48
Wind_Speed
26 27 27 27 27 27 27 27 27 26 26 27 26 26 27 27 29 25 26 22 13 16 17 13 12 11 13 18 23 25 25 12 8 2 6 8 8 14 13 13 16 17 18 18 19
27 27 27 27 27 27 28 27 27 27 27 26 26 26 26 27 29 32 23 17 16 12 8 6 7 8 3 3 10 7 10 5 16 5 9 7 5 9 10 12 15 17 18 18 18
29 28 28 28 28 27 27 27 28 27 27 26 25 25 25 25 26 15 11 12 11 4 29 25 27 13 8 8 2 4 8 9 16 13 9 6 7 9 8 9 11 14 16 16 15
30 30 30 29 29 28 28 27 27 28 27 26 25 24 24 21 17 13 11 8 4 8 26 17 15 3 6 5 5 8 5 21 17 8 8 5 5 5 5 11 11 14 15 15 15
32 32 31 31 30 29 29 29 28 27 27 26 24 23 21 15 21 12 10 4 5 13 16 9 6 5 8 9 6 7 11 9 12 7 1 5 4 6 8 9 11 12 13 14 14
32 32 32 32 31 30 29 30 30 28 26 25 24 20 18 22 14 11 9 4 4 7 10 11 10 10 21 10 5 3 9 6 3 2 4 0 4 5 5 7 9 10 11 12 13
33 33 33 32 32 32 31 30 30 29 26 24 15 17 26 20 15 10 6 5 6 8 15 10 18 11 12 9 7 10 6 5 4 4 3 5 1 6 4 6 6 7 8 9 11
34 34 34 33 33 33 32 30 29 27 24 13 10 16 22 11 12 8 6 7 8 10 17 13 15 15 14 11 6 2 3 3 1 4 3 8 4 1 4 5 3 5 6 7 10
35 35 34 34 34 33 33 30 27 23 16 11 14 14 22 10 3 3 4 6 5 5 11 13 14 8 5 7 0 2 2 4 3 3 2 11 5 1 5 5 2 2 3 5 8
37 37 36 35 35 34 33 28 20 19 13 11 21 18 8 5 4 3 2 10 4 5 7 10 11 10 9 3 3 1 3 2 1 2 2 8 8 2 3 3 2 1 1 2 5
38 38 38 37 36 34 30 20 19 16 7 3 14 4 12 6 7 2 5 3 2 3 1 1 2 3 4 6 13 26 2 7 14 4 3 7 3 3 2 4 4 3 2 1 4
39 39 39 38 37 32 23 21 25 23 27 9 15 3 14 8 3 4 7 4 1 2 2 2 5 12 12 9 15 20 13 8 8 10 7 5 5 6 5 7 6 4 3 3 4
40 40 40 39 36 23 24 28 24 24 25 27 9 10 7 2 4 4 6 9 2 3 3 5 11 4 13 11 11 7 10 5 12 6 5 12 9 5 4 5 6 6 5 4 4
41 40 40 40 25 27 24 20 18 24 25 16 8 10 10 3 7 7 6 9 6 7 6 9 11 14 9 4 4 4 9 6 6 4 7 7 8 5 4 7 6 7 7 6 5
43 42 40 32 30 23 21 21 22 18 25 10 6 9 2 11 8 11 5 12 5 8 11 10 10 9 5 7 3 17 3 8 6 6 10 5 15 14 9 6 6 5 6 5 5
43 42 39 24 17 22 26 21 19 21 26 14 10 9 5 10 8 2 5 8 13 12 11 22 10 3 7 5 4 7 3 6 7 8 10 17 6 5 6 6 1 2 4 4 3
42 40 33 25 21 22 22 14 22 27 15 19 14 9 8 7 9 5 8 7 7 8 8 10 11 10 14 3 5 3 2 5 5 4 7 8 12 25 13 16 15 2 3 3 2
44 35 18 16 22 22 18 18 29 24 24 18 19 12 12 8 11 8 8 9 10 6 7 7 7 5 5 4 4 4 4 10 16 12 4 12 16 14 14 19 20 18 4 3 2
44 21 17 17 16 16 18 25 25 27 28 27 22 22 17 15 12 11 11 11 10 10 18 9 12 5 6 7 5 7 8 23 25 16 20 17 12 11 11 13 14 12 4 2 3
35 22 16 22 13 13 21 30 31 34 26 25 29 25 24 17 17 14 12 13 11 11 24 20 9 6 9 15 18 19 11 11 13 18 17 18 19 17 12 9 10 13 6 2 3
24 22 17 18 12 13 25 30 31 38 24 30 31 32 27 29 19 20 17 17 14 10 14 21 21 7 6 10 8 11 13 14 20 11 17 19 15 13 12 14 12 9 5 4 3
24 22 16 16 16 14 23 28 31 33 32 29 32 29 27 28 31 24 24 19 14 19 14 16 20 17 10 10 20 24 7 9 12 11 19 24 22 14 15 15 14 15 6 4 4
27 23 15 16 16 21 19 26 30 31 33 34 32 32 32 28 30 31 31 22 14 18 14 15 19 19 15 11 13 16 15 10 11 18 11 17 20 13 12 17 14 12 7 4 4
23 23 16 16 18 24 29 29 31 24 28 34 35 34 35 34 31 29 28 16 15 18 21 26 19 20 15 12 9 11 11 10 13 14 15 17 20 11 13 13 10 7 6 3 3
21 21 21 19 20 26 28 30 31 29 26 26 29 35 37 38 35 34 31 18 20 20 21 20 20 25 31 20 27 9 7 6 9 10 16 21 26 27 28 23 21 6 4 2 2
24 24 26 28 26 26 28 26 33 30 26 29 28 27 29 31 34 34 27 34 23 22 25 22 24 27 28 31 31 11 21 17 9 12 19 22 27 28 20 20 17 9 3 1 1
26 23 22 25 25 25 24 24 26 29 31 28 26 29 32 30 30 32 32 29 30 22 25 23 26 27 25 25 24 27 24 18 17 15 18 22 25 24 21 19 12 8 4 2 2
Wind_Direction
327 325 322 318 316 315 312 307 305 302 298 291 289 286 284 283 276 287 277 285 293 294 291 300 302 297 291 285 277 280 285 294 305 358 42 29 26 346 27 41 2 4 35 66 84
326 322 317 313 310 309 309 307 303 301 296 290 287 287 286 289 274 255 255 297 291 290 302 313 314 307 167 189 289 274 290 268 294 310 324 9 32 75 45 44 34 40 51 64 84
326 323 319 312 307 302 300 300 300 298 295 289 286 288 290 292 278 304 321 304 296 292 228 253 242 294 157 308 273 290 197 307 301 307 317 14 49 87 67 37 46 53 56 63 47
326 324 320 314 307 302 297 294 294 293 290 286 287 289 292 293 310 328 332 328 340 284 243 274 284 310 311 299 301 298 279 290 299 301 304 352 26 98 44 45 54 61 67 63 64
324 322 319 314 308 302 297 294 288 285 283 278 284 295 301 306 291 334 344 32 322 279 271 295 304 307 306 309 308 297 311 301 304 323 222 12 36 349 25 37 58 62 59 56 55
319 318 316 312 307 304 296 292 289 282 276 267 280 304 304 283 325 337 336 22 320 298 294 292 303 301 289 307 305 322 318 315 310 289 171 30 58 16 30 74 70 63 56 52 50
317 313 311 308 306 304 298 291 288 285 276 283 325 318 267 215 310 336 357 345 312 298 289 292 288 305 312 314 313 320 315 323 307 163 177 123 141 343 103 96 82 68 58 49 42
315 311 309 306 303 302 299 292 285 288 299 339 355 321 278 331 314 337 1 338 323 301 287 297 289 287 295 320 328 338 144 320 19 137 142 163 213 23 128 125 99 77 60 46 32
316 312 307 304 302 299 298 291 293 310 328 343 331 323 288 342 353 6 10 1 18 348 305 295 288 298 300 307 259 299 302 189 60 139 154 171 303 83 140 146 123 96 60 34 22
317 313 309 303 301 298 295 289 332 327 341 339 297 311 258 343 99 82 81 308 6 334 317 299 294 291 284 196 192 239 218 179 303 146 172 185 317 103 168 195 202 172 77 9 8
318 314 309 304 301 298 305 335 337 342 338 336 324 337 342 10 341 39 122 96 39 347 98 338 277 205 204 195 258 280 233 303 311 128 160 191 269 298 252 217 211 217 261 324 348
318 314 310 304 301 294 317 320 317 317 300 285 199 264 306 324 351 140 131 143 198 254 179 304 189 274 290 287 283 281 294 294 326 319 297 244 302 297 239 210 211 227 260 283 321
315 314 312 305 298 318 317 304 311 316 305 294 206 194 191 246 292 168 159 163 196 266 225 277 320 166 291 285 287 276 289 300 302 319 296 302 289 285 273 229 219 231 256 272 291
316 313 313 308 318 316 314 326 324 318 305 302 301 292 182 207 216 178 174 175 279 283 281 290 265 298 292 231 239 247 282 304 328 326 316 288 302 204 236 205 230 237 248 255 265
316 315 312 323 312 315 320 318 312 322 298 330 331 344 203 183 357 177 192 173 250 289 285 289 288 296 273 283 238 286 265 305 323 312 313 236 317 308 179 218 225 228 228 251 267
313 311 311 330 331 314 304 306 312 295 286 306 313 305 268 199 202 147 186 186 282 284 279 266 302 253 283 283 200 314 336 322 319 310 292 309 290 50 266 275 223 195 217 240 270
310 302 321 319 319 317 312 302 287 277 313 292 297 295 267 237 202 203 190 210 239 254 250 274 291 274 287 264 276 287 294 316 312 283 300 334 318 315 333 327 359 349 189 192 192
311 294 355 340 319 308 302 282 273 289 277 307 298 290 271 254 217 234 238 226 198 241 266 253 260 215 246 231 283 224 263 297 321 315 342 330 325 319 341 336 342 339 141 139 150
315 359 359 358 339 313 286 272 270 276 288 284 285 280 276 263 261 255 235 243 207 210 269 265 275 239 211 247 253 281 237 291 296 309 303 314 342 349 347 348 354 352 355 87 131
342 350 358 346 353 321 283 272 275 269 287 284 274 279 271 263 254 249 252 250 238 214 257 280 276 255 266 273 273 285 292 302 302 301 304 322 320 329 354 4 10 357 3 64 109
354 346 359 359 2 320 284 276 273 264 283 273 272 271 273 270 259 257 257 268 248 232 250 268 268 265 268 247 252 274 287 297 307 319 316 319 332 341 351 354 358 3 38 90 96
347 341 359 349 333 321 295 282 276 272 274 270 270 274 273 273 271 259 262 259 265 253 243 254 275 271 267 254 272 290 266 263 289 292 305 308 306 343 342 349 351 352 44 77 101
340 336 357 344 331 316 310 288 279 274 269 265 266 267 269 272 270 265 261 263 257 250 243 251 262 266 275 278 277 276 284 305 282 307 311 314 326 346 355 340 344 344 2 38 89
343 335 347 339 326 311 300 290 281 282 276 267 266 266 264 266 268 269 263 262 259 260 261 258 258 258 245 273 264 254 256 269 289 298 306 311 321 351 346 343 351 348 359 32 73
341 335 333 328 322 312 299 291 281 280 283 275 270 265 262 263 263 262 261 262 260 259 262 257 251 261 262 276 252 275 224 234 273 288 300 311 310 317 320 326 332 354 355 40 62
330 329 323 311 311 308 298 295 281 277 283 272 284 271 270 262 259 261 274 258 257 255 251 255 259 260 265 263 265 272 186 288 276 295 305 311 311 317 331 326 326 334 349 23 76
333 329 323 312 310 308 307 300 290 290 281 278 280 278 270 269 270 266 260 264 271 251 247 248 255 259 266 269 277 272 276 284 288 300 307 308 316 325 323 325 332 338 348 0 25